Regional Weather Roundup
Issued by NWS State College, PA

Home | Current Version | Previous Version | Graphics & Text | Print | Product List | Glossary On
Versions: 1 2 3 4 5 6 7 8 9 10 11 12 13 14 15 16 17 18 19 20 21 22 23 24 25 26 27 28 29 30 31 32 33 34 35 36 37 38 39 40 41 42 43 44 45 46 47 48 49 50
000
ASUS41 KCTP 060910
RWRCTP

REGIONAL WEATHER ROUNDUP
NATIONAL WEATHER SERVICE STATE COLLEGE PA
500 AM EDT WED MAY 06 2015

Note: "fair" indicates few or no clouds below 12,000 feet with no
significant weather and/or obstructions to visibility.

* = STATION THAT DOES NOT REPORT PRECIPITATION /E.G. RAIN...SNOW...ETC/
    THUNDER OR FOG.

PAZ002>004-007>009-013>016-020>023-029>032-061000-
WESTERN PENNSYLVANIA

CITY           SKY/WX    TMP DP  RH WIND       PRES   REMARKS
ERIE           LGT RAIN  51  50  96 N3        30.23R FOG
MEADVILLE      LGT RAIN  59  57  93 CALM      30.23S FOG
FRANKLIN*      CLOUDY    57  54  88 SE5       30.24S
NEW CASTLE     FOG       55  55 100 CALM      30.23S VSB 1/2
BEAVER COUNTY  NOT AVBL
BUTLER*        PTCLDY    57  55  94 E6        30.24S
PITTSBURGH INT PTCLDY    59  58  96 CALM      30.21S FOG
PITTSBURGH     PTCLDY    59  56  89 N3        30.20S FOG
INDIANA*       CLOUDY    57  57 100 CALM      30.26S FOG
LATROBE        PTCLDY    55  55 100 CALM      30.23S FOG
WASHINGTON CO* CLOUDY    54  52  94 CALM      30.23S VSB 1/4
$$

PAZ004>006-010>012-017>019-024>028-033>037-041-042-045-046-049>053-061000-
CENTRAL PENNSYLVANIA

CITY           SKY/WX    TMP DP  RH WIND       PRES   REMARKS
BRADFORD       LGT RAIN  54  53  97 E6        30.25F FOG
DUBOIS         LGT RAIN  58  55  90 SE5       30.24S FOG
CLEARFIELD     LGT RAIN  57  56  96 NE3       30.25F VSB 3/4
JOHNSTOWN      CLEAR     59  52  77 CALM      30.24S
ALTOONA        MOCLDY    58  55  90 CALM      30.23F FOG
STATE COLLEGE  CLOUDY    58  57  96 N7        30.25F
WILLIAMSPORT   LGT RAIN  58  55  90 NW3       30.25S
SELINSGROVE    CLOUDY    60  56  86 CALM      30.24R
FT INDIANTOWN  MOCLDY    58  58  99 CALM      30.21S FOG
CAPITAL CITY   MOCLDY    59  58  96 SW3       30.21R FOG
HARRISBURG     MOCLDY    63  60  90 CALM      30.20S FOG
YORK           CLOUDY    60  58  92 CALM      30.20F
$$

PAZ038>040-043-044-047-048-054-055-060>062-067>071-061000-
EASTERN PENNSYLVANIA

CITY           SKY/WX    TMP DP  RH WIND       PRES   REMARKS
SCRANTON       LGT RAIN  59  53  80 NE6       30.26R
MOUNT POCONO   LGT RAIN  54  46  74 N7        30.26R
ALLENTOWN      CLOUDY    67  45  45 NE8       30.22R
QUAKERTOWN*    CLOUDY    66  52  59 CALM      30.22R
READING        CLOUDY    63  60  90 CALM      30.21R
LANCASTER      FOG       58  57  97 E3        30.21S VSB 1/4
COATESVILLE    FOG       59  59 100 CALM      30.22S VSB 1
POTTSTOWN      CLOUDY    64  60  87 CALM      30.23R
BLUE BELL      PTCLDY    64  61  88 CALM      30.20S
DOYLESTOWN     CLOUDY    62  57  83 CALM      30.20R
WILLOW GROVE   NOT AVBL
NORTH PHILA    CLOUDY    69  56  62 N6        30.21R
PHILADELPHIA   CLOUDY    66  62  87 W3        30.20S
$$



USA.gov is the U.S. government's official web portal to all federal, state and local government web resources and services.